760 visiteurs
Prévisions de votre ville :
Vigilance : 1 département Mise à jour le 07/12/2019 à 11:00 - Voir la carte

Paris Roissy CDG (95380) le 07/12/2019 à 14:30 Choisir station

11°C 71 % O Vit. moyenne 13 kmh/h

Relevés météo quotidiens pour la station de :

UTC
S: Synop
M: Metar
Loc T°C
(°C)
Td
(°C)
HR
(%)
Vis
(km)
Néb
(octa)
Vent
(km/h)
Pression
(mb)
Précipitations
(mm)
Temps
              MOY
10 min
DIR RAF 1h MESURE VAR SUR 3h    
S 00 h 02h 14.4 13.9 97 8 8/8 4 9 1015.5 +1.5/3h 13.0/6h - 9.0/3h
S 01 h 03h 14.1 13.8 98 7 8/8 4 13 1015.4 +0.2/3h 0.0/1h
S 02 h 04h 13.8 13.5 98 1.2 7/8 2 2 1015.5 +0.6/3h 0.0/1h
S 03 h 05h 13.3 13.1 99 1.3 8/8 4 6 1015.9 +0.2/3h 0.0/1h
S 04 h 06h 13.5 13.5 100 6 8/8 2 6 1016.0 +0.5/3h 0.0/1h
S 05 h 07h 13.8 13.8 100 0.4 - 4 7 1016.4 +0.9/3h 0.0/1h
S 06 h 08h 13.9 13.9 100 0.4 - 2 7 1017.1 +1.3/3h 13.0/12h - 0.0/3h - 22.4/24h
S 07 h 09h 14.2 14.2 100 0.4 - 4 9 1017.7 +1.7/3h 0.0/1h
S 08 h 10h 14.7 14.5 99 3.6 8/8 6 9 1017.9 +1.6/3h 0.0/1h
S 09 h 11h 15.5 15.0 97 4.1 8/8 4 7 1018.0 +1.1/3h 0.0/3h
S 10 h 12h 17.2 15.0 87 19 8/8 6 15 1017.3 +0.1/3h 0.0/1h
S 11 h 13h 17.7 14.2 80 40 8/8 7 11 1016.4 -1.0/3h 0.0/1h
S 12 h 14h 13.9 11.8 87 4.1 8/8 24 57 1017.9 -0.4/3h 5.0/6h - 5.0/3h
S 13 h 15h 13.3 12.4 94 3.1 8/8 4 17 1020.4 +2.3/3h 2.0/1h
S 14 h 16h 13.3 12.0 92 19 8/8 7 19 1017.9 +0.7/3h 4.0/1h
S 15 h 17h 16.6 13.1 80 55 - 9 24 1018.6 +1.1/3h 6.0/3h -
S 16 h 18h 17.2 12.7 75 40 7/8 7 19 1018.9 -0.8/3h 0.0/1h
S 17 h 19h 17.9 12.3 70 60 - 4 9 1019.2 +2.0/3h 0.0/1h -
S 18 h 20h 17.1 13.0 77 60 - 11 22 1019.5 +1.0/3h 11.0/12h - 0.0/3h -
S 19 h 21h 15.4 12.9 85 50 - 9 26 1020.2 +1.0/3h 0.0/1h -
S 20 h 22h 14.8 13.0 89 45 7/8 7 15 1021.1 +1.3/3h 0.0/1h
S 21 h 23h 13.7 12.3 91 40 - 2 11 1021.9 +1.7/3h 0.0/3h -
S 22 h 00h 12.2 11.6 96 9 - 2 6 1022.5 +1.6/3h 0.0/1h -
S 23 h 01h 11.1 10.6 97 9 - 2 4 1022.8 +1.0/3h 0.0/1h -
evolution des temperatures
cumul des precipitations
vent moyen et rafales
pression atmospherique

Un tiret (-) signifie que les données ne sont pas disponibles.

Passez la souris sur les pictos temps pour avoir plus de précisions. Passez les flèches sur l'icône de la direction du vent pour voir la direction précise en degrés.

Les données de l'heure en cours sont disponibles à partir de H+15 minutes.


S signifie station Synop, plus complète qu'une station Metar (M). Il y a +1h de différence entre l'heure UTC et l'heure légale en hiver et +2h en été.

Td est la mesure du point de rosée.

HR est l'humidité relative/p>

Vis est la visibilité

Néb est la nébulosité du ciel (couverture nuageuse) exprimée en octas (de 0/8 à 8/8).

Vent moy 10 min donne le vent moyen sur les 10 minutes qui précèdent le relevé.

Vent raf 1h donne la rafale maximale mesurée dans l'heure qui précède le relevé.


Les données les plus anciennes remontent à avril 2014.

Les données présentées sur cette page proviennent des stations météo officielles. Les relevés sont effectués aux normes en vigueur (anémomètre à 10m de haut, thermomètre sous abri normalisé à 2m du sol...)

Météo 60 décline toute responsabilité en cas d'absence de données, d'erreurs, de mauvaise utilisation ou interprétation et n'est pas habilité à fournir des certificats intempéries.